Dati Storici

Data ora Umidita' aria (%) Temperatura aria (°C) Rad globale (W/m²) Gonioanemometro (°) Tacoanemometro (m/s) Pioggia (mm)
27-06-2020 00:10 88.4 % 23.171 337.187 0.149 0 0
27-06-2020 00:00 88.8 % 23.236 340.416 -0.022 0 0
26-06-2020 23:50 87.7 % 22.992 346.764 -0.023 0 0
26-06-2020 23:40 88.1 % 23.148 183.168 -0.023 0 0
26-06-2020 23:30 86.9 % 23.156 18.752 -0.026 0 0
26-06-2020 23:20 86.4 % 23.31 17.759 -0.022 0 0
26-06-2020 23:10 86.5 % 23.522 31.011 -0.022 0 0
26-06-2020 23:00 86.9 % 23.602 13.629 -0.025 0 0
26-06-2020 22:50 85.3 % 23.858 67.494 -0.025 0 0
26-06-2020 22:40 84.8 % 23.928 20.607 -0.024 0 0
26-06-2020 22:30 83.7 % 23.974 11.437 -0.027 0 0
26-06-2020 22:20 83 % 24.147 154.604 -0.026 0 0
26-06-2020 22:10 82.5 % 24.101 136.077 -0.024 0 0
26-06-2020 22:00 80.3 % 24.197 88.813 0.548 0 0
26-06-2020 21:50 79.1 % 24.467 153.188 -0.011 0 0
26-06-2020 21:40 77 % 24.537 134.12 -0.014 0 0
26-06-2020 21:30 77.9 % 24.506 164.731 0.868 0 0
26-06-2020 21:20 77.2 % 24.53 197.887 0.376 0 0
26-06-2020 21:10 76.4 % 24.606 188.977 0.834 0 0
26-06-2020 21:00 76.3 % 24.619 132.037 0.971 0 0

I dati sono presentati in modo automatico a scopo informativo. In seguito a verifica i dati possono subire modifiche o essere invalidati e non riportati negli archivi definitivi.